HISPASAT 30W-5 (37264 NORAD) Tracking and Keplerian Element Data

This shows tracking and keplerian element data for the satellite.

Feedback or suggestion? Click here.




ElementValue
Catalog37264
NameHISPASAT 30W-5
Epoch Orbit4818
Epoch Day34.46334848
Epoch Year2025
RAAN111.269
Inclination0.0331
Eccentricity0.0002694
Argument of Perigee220.7714
Mean Anonmoly298.613
Mean Motion1.00269206
Decay Rate-2.12E-06
L11 37264U 10070A 25034.46334848 -.00000212 00000+0 00000+0 0 9998
L22 37264 0.0331 111.2690 0002694 220.7714 298.6130 1.00269206 48181



Live tracking and technical data element details for HISPASAT 30W-5 (NORAD 37264). HISPASAT 30W-5 can be tracked NOW for your location showing map with azimuth and elevation plus other details from your city location.







IsCatalogInMostPopularTable: catalog: 37264, numindb: 371
Update: records affected: 1



GetName: 37264 HISPASAT 30W-5

Hit Count: updated at: Thu, 15 May 2025 19:17:32 GMT